Welcome to Sulphur Springs Municipal Airport

Strategically located between Dallas and Texarkana, Sulphur Springs Municipal Airport (KSLR) offers exceptional business and aviation services along with superior investment opportunities, abundant space for growth, and lakefront access. We’re a friendly and bustling connector to the Texas, Oklahoma, Arkansas and Louisiana region. Sulphur Springs Municipal Airport is a rapidly emerging center for business, commerce and mobility. We invite you to stop on in!

METAR: KSLR 280155Z AUTO 17005KT 10SM CLR 09/M04 A3027 RMK AO2 T00911038